Flag for Costa Rica Weather past 2 weeks in Alajuela, Costa Rica

Now
77 °F

Sunny.


Feels Like: 78 °F
Forecast: 67 / 81 °F
Wind: 13 mph from East

Location: Juan Santamaria

Current Time: May 28, 2015 at 9:28:31 AM

Latest Report: May 28, 2015 at 9:00 AM


Visibility: 10 mi

Pressure: 30.06 "Hg

Humidity: 42%

Dew point: 52 °F

Location of AlajuelaLocation

Historic Weather in Alajuela — Graph

°F

Alajuela temperature yesterday

Maximum temperature yesterday: 82 °F (at 12:00 PM)
Minimum temperature yesterday: 68 °F (at 2:00 AM)
Average temperature yesterday: 74 °F

Past Weeks' High & Low Weather Summary

 TemperatureHumidityPressure
High86 °F (May 13, 12:00 PM)94% (May 16, 2:00 PM)30.11 "Hg (May 16, 2:00 PM)
Low64 °F (May 16, 9:00 PM)35% (May 15, 1:00 PM)27.71 "Hg (May 17, 2:00 PM)
Average74 °F69%30.01 "Hg
* Reported May 13 8:00 AM — May 28 8:00 AM, Alajuela, Weather by CustomWeather, © 2015

Note: Actual official high and low records may vary slightly from our data, if they occured in-between our weather recording intervals... More about our weather records

Advertising

Alajuela weather history for previous 24 hours

 ConditionsComfort  
Time TempWeatherWind HumidityBarometerVisibility
8:00 AM
Thu, May 28
73 °FSunny.9 mph47%30.06 "Hg10 mi
7:00 AM70 °FSunny.13 mph53%30.04 "Hg10 mi
6:00 AM68 °FSunny.13 mph60%30.03 "Hg10 mi
5:00 AM64 °FClear.5 mph68%30.00 "Hg10 mi
4:00 AM66 °FClear.9 mph73%29.99 "Hg10 mi
3:00 AM66 °FClear.8 mph73%29.99 "Hg10 mi
2:00 AM68 °FClear.9 mph64%30.00 "Hg10 mi
1:00 AM68 °FClear.8 mph69%30.02 "Hg10 mi
12:00 AM68 °FClear.7 mph69%30.03 "Hg10 mi
11:00 PM
Wed, May 27
68 °FClear.8 mph69%30.04 "Hg10 mi
10:00 PM70 °FClear.9 mph64%30.05 "Hg10 mi
9:00 PM70 °FPassing clouds.8 mph60%30.05 "HgN/A
8:00 PM70 °FPassing clouds.7 mph69%30.04 "HgN/A
7:00 PM72 °FPassing clouds.6 mph69%30.01 "HgN/A
6:00 PM72 °FPassing clouds.10 mph69%29.99 "HgN/A
5:00 PM75 °FPartly sunny.8 mph61%29.97 "HgN/A
4:00 PM75 °FPartly sunny.12 mph65%29.94 "HgN/A
3:00 PM79 °FScattered clouds.12 mph58%29.93 "HgN/A
2:00 PM82 °FBroken clouds.12 mph51%29.95 "HgN/A
1:00 PM82 °FPartly sunny.12 mph48%29.97 "HgN/A
12:55 PM82 °FPartly sunny.12 mph48%29.97 "HgN/A
12:00 PM82 °FScattered clouds.14 mph55%29.99 "HgN/A
11:00 AM81 °FScattered clouds.12 mph54%30.01 "HgN/A
10:00 AM81 °FScattered clouds.13 mph54%30.02 "HgN/A
9:00 AM79 °FScattered clouds.12 mph58%30.03 "HgN/A
Weather by CustomWeather, © 2015

See weather overviewHow to use our weather pages